Location: Unspecified
(34.4500°N, 0.0000°E)
Time: 14:42:57
(UTC+00:00)

Envisat - Pass Details

Date: 08 March 2021
Orbit: 764 x 766 km, 98.1° (Epoch: 17 April)

Event Time Altitude Azimuth Distance (km) Brightness Sun altitude
Rises 05:15:28 0° 17° (NNE) 3,236 6.5 -14.1°
Reaches altitude 10° 05:17:50 10° 22° (NNE) 2,306 5.8 -13.6°
Maximum altitude 05:22:48 55° 100° (E) 920 3.8 -12.6°
Drops below altitude 10° 05:27:45 10° 178° (S) 2,291 5.5 -11.6°
Sets 05:30:05 0° 182° (S) 3,212 6.2 -11.1°
